ENT65MB EPMO-LICB

Flight info

Callsign ENT65MB
Flight time 2h 35m
Altitude 360
Route EVINA M66 BABKO DCT ORTYN DCT ABLOM DCT INSAX DCT PETOV DCT KOREX DCT XAMIT/N0456F350 DCT BEDPI DCT POLIT DCT CDC/N0388F190 L137 NOTRI
Aircraft B738/M-VGDW/C

Departure

Time 2026-04-25 05:10
Airport Warsaw Modlin Airport (EPMO)

Arrival

Time 2026-04-25 07:45
Airport Comiso Airport (LICB)
Time Latitude Longitude Altitude Speed Heading
2026-04-25 04:58 52.44763 20.65421 337 ft 0 kts 206°
2026-04-25 04:59 52.44765 20.65422 333 ft 3 kts 203°
2026-04-25 04:59 52.44783 20.65429 335 ft 3 kts 172°
2026-04-25 05:00 52.44801 20.65419 333 ft 3 kts 141°
2026-04-25 05:00 52.44808 20.65410 333 ft 0 kts 128°
2026-04-25 05:03 52.44806 20.65416 333 ft 2 kts 114°
2026-04-25 05:03 52.44809 20.65454 333 ft 5 kts 81°
2026-04-25 05:04 52.44816 20.65523 337 ft 7 kts 80°
2026-04-25 05:04 52.44825 20.65621 335 ft 10 kts 83°
2026-04-25 05:04 52.44834 20.65746 335 ft 12 kts 81°
2026-04-25 05:04 52.44848 20.65893 337 ft 14 kts 81°
2026-04-25 05:05 52.44864 20.66054 337 ft 14 kts 81°
2026-04-25 05:05 52.44878 20.66209 337 ft 13 kts 82°
2026-04-25 05:05 52.44892 20.66357 336 ft 13 kts 81°
2026-04-25 05:05 52.44906 20.66501 337 ft 13 kts 81°
2026-04-25 05:06 52.44919 20.66641 337 ft 12 kts 82°
2026-04-25 05:06 52.44931 20.66777 337 ft 12 kts 81°
2026-04-25 05:06 52.44943 20.66911 334 ft 12 kts 81°
2026-04-25 05:06 52.44958 20.67035 334 ft 10 kts 70°
2026-04-25 05:07 52.45015 20.67079 334 ft 10 kts 350°
2026-04-25 05:07 52.45084 20.67061 335 ft 10 kts 351°
2026-04-25 05:07 52.45152 20.67043 336 ft 10 kts 352°
2026-04-25 05:07 52.45212 20.67019 336 ft 9 kts 342°
2026-04-25 05:08 52.45268 20.66986 336 ft 9 kts 329°
2026-04-25 05:08 52.45286 20.66933 335 ft 3 kts 268°
2026-04-25 05:08 52.45285 20.66916 336 ft 0 kts 262°
2026-04-25 05:09 52.45279 20.66852 335 ft 27 kts 261°
2026-04-25 05:09 52.45211 20.66137 337 ft 99 kts 261°
2026-04-25 05:09 52.45071 20.64678 351 ft 157 kts 259°
2026-04-25 05:09 52.44856 20.62831 907 ft 168 kts 257°
2026-04-25 05:10 52.44608 20.60902 1617 ft 178 kts 263°
2026-04-25 05:10 52.44396 20.58837 2336 ft 189 kts 265°
2026-04-25 05:10 52.44181 20.56640 2903 ft 200 kts 264°
2026-04-25 05:10 52.43953 20.54319 3296 ft 215 kts 269°
2026-04-25 05:11 52.44385 20.52118 4057 ft 201 kts 313°
2026-04-25 05:11 52.45624 20.50988 4403 ft 225 kts 351°
2026-04-25 05:11 52.47244 20.51425 4836 ft 246 kts 12°
2026-04-25 05:12 52.50659 20.51897 6425 ft 248 kts 356°
2026-04-25 05:12 52.52391 20.51810 7175 ft 251 kts 355°
2026-04-25 05:12 52.54146 20.51674 7906 ft 255 kts 355°
2026-04-25 05:12 52.55933 20.51520 8689 ft 258 kts 355°
2026-04-25 05:13 52.57743 20.51537 9417 ft 265 kts
2026-04-25 05:13 52.59455 20.52755 10129 ft 276 kts 32°
2026-04-25 05:13 52.60780 20.55163 10560 ft 301 kts 57°
2026-04-25 05:13 52.61444 20.58611 10740 ft 332 kts 75°
2026-04-25 05:14 52.61801 20.62449 10907 ft 354 kts 78°
2026-04-25 05:14 52.62139 20.66583 11095 ft 373 kts 78°
2026-04-25 05:14 52.62506 20.70869 11563 ft 381 kts 77°
2026-04-25 05:15 52.62877 20.79649 12855 ft 398 kts 98°
2026-04-25 05:15 52.61835 20.83930 13506 ft 410 kts 118°
2026-04-25 05:15 52.59996 20.87572 14067 ft 420 kts 136°
2026-04-25 05:15 52.57581 20.90346 14584 ft 428 kts 153°
2026-04-25 05:16 52.54766 20.92005 15127 ft 433 kts 165°
2026-04-25 05:16 52.51816 20.93140 15669 ft 437 kts 168°
2026-04-25 05:16 52.48823 20.94138 16173 ft 441 kts 169°
2026-04-25 05:16 52.45801 20.95140 16699 ft 445 kts 168°
2026-04-25 05:17 52.42756 20.96195 17226 ft 449 kts 168°
2026-04-25 05:17 52.39692 20.97304 17708 ft 453 kts 167°
2026-04-25 05:17 52.36633 20.98441 18200 ft 457 kts 167°
2026-04-25 05:17 52.33520 20.99603 18636 ft 461 kts 167°
2026-04-25 05:18 52.30368 21.00695 19090 ft 464 kts 173°
2026-04-25 05:18 52.27153 21.00576 19493 ft 463 kts 194°
2026-04-25 05:18 52.24110 20.98963 19961 ft 459 kts 210°
2026-04-25 05:18 52.21460 20.96126 20421 ft 452 kts 225°
2026-04-25 05:19 52.19120 20.92711 20856 ft 453 kts 227°
2026-04-25 05:19 52.16823 20.89247 21264 ft 456 kts 228°
2026-04-25 05:19 52.14484 20.85721 21659 ft 459 kts 227°
2026-04-25 05:19 52.12116 20.82194 22076 ft 462 kts 227°
2026-04-25 05:20 52.09722 20.78678 22498 ft 465 kts 227°
2026-04-25 05:20 52.07303 20.75158 22895 ft 468 kts 226°
2026-04-25 05:20 52.04866 20.71630 23297 ft 470 kts 226°
2026-04-25 05:20 52.02414 20.68085 23645 ft 473 kts 226°
2026-04-25 05:21 51.99953 20.64531 23974 ft 475 kts 226°
2026-04-25 05:21 51.97474 20.60966 24329 ft 477 kts 225°
2026-04-25 05:21 51.94783 20.57762 24665 ft 484 kts 216°
2026-04-25 05:21 51.91793 20.55203 25012 ft 490 kts 205°
2026-04-25 05:22 51.88619 20.53305 25366 ft 492 kts 202°
2026-04-25 05:22 51.85369 20.51503 25666 ft 494 kts 201°
2026-04-25 05:22 51.82105 20.49697 25939 ft 497 kts 202°
2026-04-25 05:22 51.78835 20.47850 26232 ft 498 kts 202°
2026-04-25 05:23 51.75566 20.45965 26554 ft 499 kts 202°
2026-04-25 05:23 51.72290 20.44056 26874 ft 500 kts 202°
2026-04-25 05:23 51.69011 20.42146 27160 ft 502 kts 202°
2026-04-25 05:23 51.65691 20.40363 27409 ft 506 kts 198°
2026-04-25 05:24 51.62217 20.39279 27707 ft 509 kts 188°
2026-04-25 05:24 51.58733 20.38790 28121 ft 508 kts 186°
2026-04-25 05:24 51.55210 20.38365 28565 ft 506 kts 186°
2026-04-25 05:24 51.51699 20.37919 28975 ft 504 kts 186°
2026-04-25 05:25 51.48211 20.37429 29360 ft 503 kts 187°
2026-04-25 05:25 51.44728 20.36906 29739 ft 502 kts 187°
2026-04-25 05:25 51.41244 20.36374 30089 ft 501 kts 188°
2026-04-25 05:25 51.37803 20.35559 30381 ft 498 kts 195°
2026-04-25 05:26 51.34489 20.34017 30683 ft 495 kts 201°
2026-04-25 05:26 51.31260 20.32302 30972 ft 494 kts 202°
2026-04-25 05:26 51.28003 20.30540 31228 ft 494 kts 202°
2026-04-25 05:26 51.24745 20.28784 31509 ft 494 kts 202°
2026-04-25 05:27 51.21485 20.27050 31837 ft 493 kts 202°
2026-04-25 05:27 51.18230 20.25340 32126 ft 492 kts 202°
2026-04-25 05:27 51.14974 20.23647 32360 ft 493 kts 202°
2026-04-25 05:27 51.11702 20.21957 32616 ft 493 kts 202°
2026-04-25 05:28 51.08447 20.20283 32926 ft 491 kts 202°
2026-04-25 05:28 51.05194 20.18615 33209 ft 490 kts 202°
2026-04-25 05:28 51.01939 20.16947 33437 ft 491 kts 202°
2026-04-25 05:28 50.98682 20.15279 33674 ft 491 kts 202°
2026-04-25 05:29 50.95436 20.13618 33969 ft 489 kts 202°
2026-04-25 05:29 50.92237 20.11984 34190 ft 488 kts 202°
2026-04-25 05:29 50.88997 20.10330 34371 ft 489 kts 202°
2026-04-25 05:29 50.85760 20.08680 34567 ft 489 kts 202°
2026-04-25 05:30 50.82529 20.07035 34803 ft 487 kts 202°
2026-04-25 05:30 50.79302 20.05396 35013 ft 487 kts 202°
2026-04-25 05:30 50.76083 20.03763 35233 ft 486 kts 202°
2026-04-25 05:30 50.72868 20.02134 35452 ft 485 kts 202°
2026-04-25 05:31 50.69658 20.00510 35663 ft 484 kts 202°
2026-04-25 05:31 50.66447 19.98888 35817 ft 484 kts 202°
2026-04-25 05:31 50.63237 19.97267 35946 ft 485 kts 202°
2026-04-25 05:32 50.56800 19.94024 35979 ft 486 kts 202°
2026-04-25 05:32 50.50380 19.90804 35981 ft 483 kts 202°
2026-04-25 05:33 50.43990 19.87607 35992 ft 481 kts 202°
2026-04-25 05:33 50.37668 19.84451 36002 ft 479 kts 202°
2026-04-25 05:34 50.31316 19.81289 36009 ft 478 kts 202°
2026-04-25 05:34 50.24964 19.78135 36013 ft 478 kts 202°
2026-04-25 05:35 50.18611 19.74990 36022 ft 478 kts 202°
2026-04-25 05:35 50.12300 19.71874 36021 ft 479 kts 202°
2026-04-25 05:36 50.05937 19.68742 36022 ft 480 kts 202°
2026-04-25 05:36 49.99560 19.65612 36017 ft 481 kts 202°
2026-04-25 05:37 49.93172 19.62485 36021 ft 481 kts 202°
2026-04-25 05:37 49.86794 19.59371 36011 ft 482 kts 202°
2026-04-25 05:38 49.80384 19.56251 36020 ft 482 kts 202°
2026-04-25 05:38 49.73979 19.53141 36003 ft 482 kts 202°
2026-04-25 05:39 49.67571 19.50038 36021 ft 481 kts 205°
2026-04-25 05:39 49.64413 19.48519 36012 ft 469 kts 204°
2026-04-25 05:39 49.61352 19.47002 36007 ft 454 kts 207°
2026-04-25 05:39 49.58556 19.45065 36022 ft 441 kts 214°
2026-04-25 05:40 49.55834 19.42881 36021 ft 442 kts 215°
2026-04-25 05:40 49.50348 19.38427 36018 ft 449 kts 214°
2026-04-25 05:41 49.44765 19.33989 36035 ft 453 kts 214°
2026-04-25 05:41 49.39123 19.29561 36031 ft 456 kts 214°
2026-04-25 05:42 49.33503 19.25119 36008 ft 454 kts 218°
2026-04-25 05:42 49.28660 19.19219 36012 ft 436 kts 236°
2026-04-25 05:43 49.24757 19.12160 36033 ft 434 kts 237°
2026-04-25 05:43 49.20873 19.05106 36034 ft 434 kts 236°
2026-04-25 05:44 49.16968 18.98093 36022 ft 432 kts 236°
2026-04-25 05:44 49.13078 18.91168 36036 ft 430 kts 236°
2026-04-25 05:45 49.09177 18.84251 36037 ft 428 kts 236°
2026-04-25 05:45 49.05298 18.77390 36033 ft 427 kts 236°
2026-04-25 05:46 49.01441 18.70582 36036 ft 427 kts 236°
2026-04-25 05:46 48.97553 18.63737 36039 ft 426 kts 236°
2026-04-25 05:47 48.93655 18.56894 36041 ft 427 kts 236°
2026-04-25 05:47 48.89741 18.50039 36035 ft 429 kts 236°
2026-04-25 05:48 48.85845 18.43235 36031 ft 430 kts 236°
2026-04-25 05:48 48.81900 18.36363 36023 ft 432 kts 236°
2026-04-25 05:49 48.77937 18.29478 36028 ft 432 kts 235°
2026-04-25 05:49 48.73999 18.22656 36036 ft 433 kts 235°
2026-04-25 05:50 48.70023 18.15785 36042 ft 433 kts 235°
2026-04-25 05:50 48.66045 18.08927 36045 ft 434 kts 235°
2026-04-25 05:51 48.62734 18.03233 36041 ft 434 kts 235°
2026-04-25 05:51 48.58743 17.96386 36038 ft 434 kts 235°
2026-04-25 05:52 48.54752 17.89558 36041 ft 433 kts 235°
2026-04-25 05:52 48.50762 17.82747 36052 ft 433 kts 235°
2026-04-25 05:53 48.46784 17.75974 36037 ft 433 kts 235°
2026-04-25 05:53 48.42795 17.69202 36046 ft 433 kts 234°
2026-04-25 05:54 48.38811 17.62454 36045 ft 433 kts 234°
2026-04-25 05:54 48.32795 17.52297 36063 ft 433 kts 234°
2026-04-25 05:55 48.28778 17.45537 36067 ft 433 kts 234°
2026-04-25 05:55 48.24751 17.38777 36069 ft 434 kts 234°
2026-04-25 05:56 48.20752 17.32079 36073 ft 434 kts 234°
2026-04-25 05:56 48.16719 17.25342 36078 ft 434 kts 234°
2026-04-25 05:57 48.12675 17.18602 36077 ft 435 kts 233°
2026-04-25 05:57 48.08621 17.11865 36076 ft 435 kts 233°
2026-04-25 05:58 48.04010 17.05879 36081 ft 446 kts 219°
2026-04-25 05:58 47.98790 17.00843 36070 ft 447 kts 218°
2026-04-25 05:59 47.93588 16.95869 36071 ft 447 kts 218°
2026-04-25 05:59 47.88365 16.90826 36074 ft 447 kts 218°
2026-04-25 06:00 47.83146 16.85763 36071 ft 446 kts 218°
2026-04-25 06:00 47.77942 16.80718 36068 ft 446 kts 218°
2026-04-25 06:01 47.72763 16.75712 36066 ft 446 kts 218°
2026-04-25 06:01 47.67562 16.70697 36062 ft 445 kts 218°
2026-04-25 06:02 47.62364 16.65698 36064 ft 445 kts 218°
2026-04-25 06:02 47.57169 16.60713 36055 ft 444 kts 218°
2026-04-25 06:03 47.52016 16.55781 36064 ft 443 kts 218°
2026-04-25 06:03 47.46834 16.50832 36070 ft 444 kts 218°
2026-04-25 06:04 47.41634 16.45878 36064 ft 444 kts 218°
2026-04-25 06:04 47.36425 16.40928 36058 ft 445 kts 217°
2026-04-25 06:05 47.31217 16.35990 36057 ft 445 kts 217°
2026-04-25 06:05 47.25991 16.31046 36074 ft 446 kts 217°
2026-04-25 06:06 47.20757 16.26106 36066 ft 448 kts 217°
2026-04-25 06:06 47.15536 16.21191 36069 ft 449 kts 217°
2026-04-25 06:07 47.10251 16.16226 36072 ft 451 kts 217°
2026-04-25 06:07 47.04948 16.11265 36069 ft 453 kts 215°
2026-04-25 06:08 46.99055 16.07742 36074 ft 464 kts 197°
2026-04-25 06:08 46.92629 16.06550 36069 ft 469 kts 188°
2026-04-25 06:09 46.86124 16.05708 36080 ft 470 kts 188°
2026-04-25 06:09 46.79612 16.04805 36073 ft 470 kts 188°
2026-04-25 06:10 46.73088 16.03843 36066 ft 470 kts 189°
2026-04-25 06:10 46.66584 16.02872 36078 ft 470 kts 188°
2026-04-25 06:11 46.60109 16.01909 36086 ft 469 kts 188°
2026-04-25 06:11 46.53621 16.00949 36088 ft 468 kts 188°
2026-04-25 06:12 46.47131 15.99992 36089 ft 468 kts 188°
2026-04-25 06:12 46.40684 15.99043 36092 ft 468 kts 188°
2026-04-25 06:13 46.34199 15.98090 36088 ft 467 kts 188°
2026-04-25 06:14 46.24473 15.96704 36085 ft 468 kts 187°
2026-04-25 06:14 46.18025 15.95825 36082 ft 468 kts 187°
2026-04-25 06:15 46.11537 15.94939 36084 ft 469 kts 187°
2026-04-25 06:15 46.05040 15.94050 36078 ft 470 kts 187°
2026-04-25 06:16 45.98520 15.93158 36087 ft 470 kts 187°
2026-04-25 06:16 45.91996 15.92267 36093 ft 471 kts 187°
2026-04-25 06:17 45.85460 15.91376 36096 ft 472 kts 186°
2026-04-25 06:17 45.78912 15.90487 36104 ft 473 kts 186°
2026-04-25 06:18 45.72400 15.89604 36102 ft 473 kts 186°
2026-04-25 06:18 45.65848 15.88718 36099 ft 473 kts 186°
2026-04-25 06:19 45.59290 15.87833 36100 ft 473 kts 186°
2026-04-25 06:19 45.52734 15.86951 36095 ft 473 kts 186°
2026-04-25 06:20 45.46183 15.86071 36085 ft 473 kts 186°
2026-04-25 06:20 45.39683 15.85200 36088 ft 472 kts 186°
2026-04-25 06:21 45.33138 15.84325 36089 ft 472 kts 186°
2026-04-25 06:21 45.26587 15.83451 36088 ft 472 kts 185°
2026-04-25 06:22 45.20040 15.82581 36087 ft 472 kts 185°
2026-04-25 06:22 45.13493 15.81711 36096 ft 472 kts 185°
2026-04-25 06:23 45.06980 15.80848 36092 ft 473 kts 185°
2026-04-25 06:23 45.00414 15.79981 36089 ft 473 kts 185°
2026-04-25 06:24 44.93851 15.79115 36093 ft 474 kts 185°
2026-04-25 06:24 44.87270 15.78250 36095 ft 474 kts 185°
2026-04-25 06:25 44.80726 15.77389 36092 ft 475 kts 185°
2026-04-25 06:25 44.74330 15.75188 36083 ft 475 kts 204°
2026-04-25 06:26 44.68395 15.71141 36097 ft 475 kts 207°
2026-04-25 06:26 44.62470 15.66990 36093 ft 475 kts 206°
2026-04-25 06:27 44.56531 15.62900 36093 ft 475 kts 206°
2026-04-25 06:27 44.50607 15.58875 36093 ft 476 kts 206°
2026-04-25 06:28 44.44637 15.54841 36087 ft 476 kts 206°
2026-04-25 06:28 44.38667 15.50815 36091 ft 477 kts 206°
2026-04-25 06:29 44.32684 15.46786 36083 ft 477 kts 206°
2026-04-25 06:29 44.26706 15.42770 36082 ft 477 kts 205°
2026-04-25 06:30 44.20721 15.38757 36074 ft 477 kts 205°
2026-04-25 06:30 44.14776 15.34781 36073 ft 477 kts 205°
2026-04-25 06:31 44.08782 15.30781 36074 ft 477 kts 205°
2026-04-25 06:31 44.02787 15.26789 36073 ft 478 kts 205°
2026-04-25 06:32 43.96792 15.22806 35990 ft 476 kts 205°
2026-04-25 06:32 43.90932 15.18921 36060 ft 459 kts 205°
2026-04-25 06:33 43.85190 15.15123 36063 ft 456 kts 205°
2026-04-25 06:33 43.79502 15.11369 36071 ft 455 kts 205°
2026-04-25 06:34 43.73778 15.07599 36077 ft 455 kts 205°
2026-04-25 06:34 43.68038 15.03827 36076 ft 457 kts 205°
2026-04-25 06:35 43.62314 15.00073 36076 ft 460 kts 205°
2026-04-25 06:35 43.56517 14.96278 36070 ft 462 kts 204°
2026-04-25 06:36 43.50679 14.92466 36076 ft 465 kts 204°
2026-04-25 06:36 43.44822 14.88648 36074 ft 467 kts 204°
2026-04-25 06:37 43.38938 14.84820 36078 ft 468 kts 204°
2026-04-25 06:37 43.33037 14.81171 36065 ft 467 kts 197°
2026-04-25 06:38 43.26693 14.79540 36056 ft 463 kts 179°
2026-04-25 06:38 43.20262 14.79493 36079 ft 461 kts 178°
2026-04-25 06:39 43.13847 14.79495 36077 ft 461 kts 178°
2026-04-25 06:39 43.07437 14.79445 36076 ft 460 kts 179°
2026-04-25 06:40 43.01035 14.79361 36066 ft 459 kts 179°
2026-04-25 06:40 42.94694 14.79269 36071 ft 458 kts 178°
2026-04-25 06:41 42.88320 14.79177 36066 ft 457 kts 178°
2026-04-25 06:41 42.81949 14.79087 36072 ft 457 kts 178°
2026-04-25 06:42 42.76664 14.79013 36073 ft 456 kts 178°
2026-04-25 06:42 42.69281 14.78910 36069 ft 456 kts 178°
2026-04-25 06:43 42.63995 14.78837 36075 ft 456 kts 178°
2026-04-25 06:43 42.57634 14.78749 36072 ft 456 kts 178°
2026-04-25 06:44 42.51281 14.78661 36063 ft 457 kts 178°
2026-04-25 06:44 42.44956 14.78573 36071 ft 457 kts 178°
2026-04-25 06:45 42.38583 14.78485 36076 ft 457 kts 178°
2026-04-25 06:45 42.32203 14.78397 36075 ft 458 kts 178°
2026-04-25 06:46 42.25863 14.78310 36070 ft 458 kts 178°
2026-04-25 06:46 42.19485 14.78222 36065 ft 459 kts 178°
2026-04-25 06:47 42.13093 14.78135 36075 ft 459 kts 178°
2026-04-25 06:47 42.06690 14.78047 36074 ft 459 kts 178°
2026-04-25 06:48 42.00298 14.77960 36078 ft 459 kts 178°
2026-04-25 06:48 41.93936 14.77873 36075 ft 460 kts 178°
2026-04-25 06:49 41.87535 14.77786 36075 ft 460 kts 178°
2026-04-25 06:49 41.81134 14.77699 36087 ft 460 kts 178°
2026-04-25 06:50 41.74736 14.77613 36081 ft 460 kts 178°
2026-04-25 06:50 41.68318 14.77526 36089 ft 460 kts 178°
2026-04-25 06:51 41.61952 14.77440 36092 ft 460 kts 178°
2026-04-25 06:51 41.55545 14.77354 36090 ft 459 kts 178°
2026-04-25 06:52 41.49143 14.77268 36104 ft 459 kts 178°
2026-04-25 06:52 41.42793 14.77183 36099 ft 459 kts 178°
2026-04-25 06:53 41.36403 14.77097 36105 ft 459 kts 178°
2026-04-25 06:53 41.29997 14.77011 36105 ft 459 kts 178°
2026-04-25 06:54 41.23618 14.76962 36103 ft 458 kts 176°
2026-04-25 06:54 41.17259 14.77285 36113 ft 457 kts 174°
2026-04-25 06:55 41.10948 14.77725 36119 ft 456 kts 174°
2026-04-25 06:55 41.04596 14.78137 36109 ft 457 kts 174°
2026-04-25 06:56 40.98240 14.78517 36122 ft 457 kts 174°
2026-04-25 06:56 40.91881 14.78887 36119 ft 457 kts 174°
2026-04-25 06:57 40.85531 14.79255 36124 ft 457 kts 175°
2026-04-25 06:57 40.79158 14.79624 36126 ft 457 kts 175°
2026-04-25 06:58 40.72840 14.79991 36122 ft 457 kts 175°
2026-04-25 06:58 40.66474 14.80359 36139 ft 457 kts 175°
2026-04-25 06:59 40.60098 14.80728 36132 ft 458 kts 175°
2026-04-25 06:59 40.53713 14.81096 36130 ft 459 kts 175°
2026-04-25 07:00 40.47330 14.81464 36126 ft 459 kts 175°
2026-04-25 07:00 40.40941 14.81831 36121 ft 460 kts 175°
2026-04-25 07:01 40.34590 14.82195 36121 ft 460 kts 175°
2026-04-25 07:01 40.28184 14.82562 36119 ft 460 kts 175°
2026-04-25 07:02 40.21776 14.82928 36118 ft 461 kts 175°
2026-04-25 07:02 40.15468 14.84124 36119 ft 454 kts 156°
2026-04-25 07:03 40.10115 14.88247 36123 ft 445 kts 136°
2026-04-25 07:03 40.05495 14.93563 36123 ft 446 kts 136°
2026-04-25 07:04 40.00842 14.98926 36119 ft 447 kts 136°
2026-04-25 07:04 39.96152 15.04256 36122 ft 447 kts 136°
2026-04-25 07:05 39.91438 15.09567 36125 ft 448 kts 136°
2026-04-25 07:05 39.86710 15.14876 36122 ft 448 kts 136°
2026-04-25 07:06 39.82009 15.20144 36127 ft 449 kts 136°
2026-04-25 07:06 39.77269 15.25449 36122 ft 449 kts 136°
2026-04-25 07:07 39.72529 15.30743 36121 ft 449 kts 136°
2026-04-25 07:07 39.67780 15.36038 36118 ft 449 kts 136°
2026-04-25 07:08 39.63032 15.41321 36120 ft 449 kts 136°
2026-04-25 07:08 39.58312 15.46565 36117 ft 449 kts 136°
2026-04-25 07:09 39.53550 15.51843 36119 ft 449 kts 136°
2026-04-25 07:09 39.48794 15.57106 36119 ft 449 kts 136°
2026-04-25 07:10 39.44028 15.62370 36128 ft 449 kts 137°
2026-04-25 07:10 39.39297 15.67587 36125 ft 449 kts 137°
2026-04-25 07:11 39.34530 15.72832 36128 ft 449 kts 136°
2026-04-25 07:11 39.29763 15.78068 36128 ft 450 kts 137°
2026-04-25 07:12 39.24992 15.83299 36127 ft 450 kts 137°
2026-04-25 07:12 39.17854 15.91107 36128 ft 450 kts 137°
2026-04-25 07:13 39.13063 15.96337 36131 ft 451 kts 137°
2026-04-25 07:13 39.08270 16.01557 36132 ft 451 kts 137°
2026-04-25 07:14 39.03504 16.06740 36132 ft 451 kts 137°
2026-04-25 07:14 38.98694 16.11960 36133 ft 452 kts 137°
2026-04-25 07:15 38.93877 16.17180 36133 ft 452 kts 137°
2026-04-25 07:15 38.89056 16.22395 36131 ft 453 kts 137°
2026-04-25 07:16 38.84256 16.27578 36133 ft 453 kts 137°
2026-04-25 07:16 38.78990 16.32005 36134 ft 461 kts 161°
2026-04-25 07:17 38.75814 16.32665 36125 ft 467 kts 179°
2026-04-25 07:17 38.72591 16.32085 36143 ft 470 kts 195°
2026-04-25 07:17 38.69623 16.30411 36114 ft 473 kts 213°
2026-04-25 07:17 38.67041 16.27812 36163 ft 473 kts 220°
2026-04-25 07:18 38.62079 16.22244 36137 ft 475 kts 221°
2026-04-25 07:18 38.57111 16.16647 36125 ft 477 kts 221°
2026-04-25 07:19 38.52084 16.11089 36138 ft 478 kts 220°
2026-04-25 07:19 38.47025 16.05559 36130 ft 479 kts 220°
2026-04-25 07:20 38.41951 16.00033 36135 ft 480 kts 220°
2026-04-25 07:20 38.36873 15.94510 36132 ft 480 kts 220°
2026-04-25 07:21 38.31830 15.89034 36070 ft 481 kts 220°
2026-04-25 07:21 38.29252 15.86237 35444 ft 488 kts 220°
2026-04-25 07:21 38.26677 15.83447 34846 ft 486 kts 220°
2026-04-25 07:22 38.24097 15.80654 34206 ft 487 kts 219°
2026-04-25 07:22 38.21509 15.77855 33421 ft 489 kts 219°
2026-04-25 07:22 38.18907 15.75044 32697 ft 489 kts 219°
2026-04-25 07:22 38.16313 15.72245 31971 ft 490 kts 219°
2026-04-25 07:23 38.13712 15.69439 31247 ft 490 kts 219°
2026-04-25 07:23 38.11141 15.66670 30512 ft 491 kts 219°
2026-04-25 07:23 38.08533 15.63864 29775 ft 490 kts 219°
2026-04-25 07:23 38.05938 15.61073 29181 ft 485 kts 219°
2026-04-25 07:24 38.03376 15.58320 28625 ft 479 kts 219°
2026-04-25 07:24 38.00843 15.55602 28055 ft 474 kts 219°
2026-04-25 07:24 37.98333 15.52910 27515 ft 469 kts 219°
2026-04-25 07:24 37.95853 15.50252 26966 ft 465 kts 219°
2026-04-25 07:25 37.93422 15.47651 26431 ft 461 kts 219°
2026-04-25 07:25 37.90981 15.45042 25906 ft 457 kts 219°
2026-04-25 07:25 37.88561 15.42456 25379 ft 453 kts 219°
2026-04-25 07:25 37.86156 15.39890 24863 ft 450 kts 219°
2026-04-25 07:26 37.83770 15.37346 24330 ft 447 kts 219°
2026-04-25 07:26 37.81396 15.34817 23788 ft 444 kts 219°
2026-04-25 07:26 37.79041 15.32310 23187 ft 442 kts 219°
2026-04-25 07:26 37.76725 15.29846 22635 ft 438 kts 219°
2026-04-25 07:27 37.74400 15.27376 22099 ft 434 kts 219°
2026-04-25 07:27 37.72099 15.24932 21586 ft 430 kts 220°
2026-04-25 07:27 37.69816 15.22510 21069 ft 426 kts 220°
2026-04-25 07:27 37.67556 15.20114 20565 ft 422 kts 220°
2026-04-25 07:28 37.65316 15.17741 20071 ft 419 kts 220°
2026-04-25 07:28 37.63084 15.15379 19576 ft 416 kts 220°
2026-04-25 07:28 37.60873 15.13040 19080 ft 414 kts 220°
2026-04-25 07:28 37.58669 15.10711 18570 ft 412 kts 220°
2026-04-25 07:29 37.56476 15.08396 18034 ft 410 kts 220°
2026-04-25 07:29 37.54299 15.06099 17499 ft 407 kts 220°
2026-04-25 07:29 37.52140 15.03821 16987 ft 403 kts 220°
2026-04-25 07:29 37.50019 15.01586 16506 ft 399 kts 220°
2026-04-25 07:30 37.47897 14.99351 16018 ft 396 kts 220°
2026-04-25 07:30 37.45792 14.97141 15545 ft 392 kts 220°
2026-04-25 07:30 37.43591 14.95116 15019 ft 391 kts 213°
2026-04-25 07:30 37.41283 14.93318 14534 ft 389 kts 211°
2026-04-25 07:31 37.38967 14.91569 14032 ft 387 kts 212°
2026-04-25 07:31 37.36682 14.89796 13514 ft 384 kts 213°
2026-04-25 07:31 37.34426 14.88007 13004 ft 382 kts 213°
2026-04-25 07:31 37.32192 14.86220 12339 ft 383 kts 213°
2026-04-25 07:32 37.29969 14.84444 11766 ft 381 kts 213°
2026-04-25 07:32 37.27756 14.82679 11261 ft 372 kts 213°
2026-04-25 07:32 37.25607 14.80967 11007 ft 357 kts 213°
2026-04-25 07:32 37.23544 14.79324 10846 ft 345 kts 213°
2026-04-25 07:33 37.22214 14.78265 10737 ft 339 kts 213°
2026-04-25 07:33 37.20249 14.76703 10590 ft 330 kts 213°
2026-04-25 07:33 37.18339 14.75184 10462 ft 321 kts 213°
2026-04-25 07:33 37.16476 14.73703 10316 ft 313 kts 213°
2026-04-25 07:34 37.14662 14.72263 10194 ft 305 kts 213°
2026-04-25 07:34 37.12895 14.70861 10086 ft 296 kts 213°
2026-04-25 07:34 37.11165 14.69488 9696 ft 299 kts 213°
2026-04-25 07:34 37.09423 14.68106 9400 ft 293 kts 213°
2026-04-25 07:35 37.07728 14.66762 9098 ft 289 kts 213°
2026-04-25 07:35 37.06041 14.65425 8789 ft 285 kts 213°
2026-04-25 07:35 37.04379 14.64108 8495 ft 280 kts 213°
2026-04-25 07:35 37.02736 14.62808 8225 ft 277 kts 213°
2026-04-25 07:36 37.01107 14.61520 7956 ft 276 kts 213°
2026-04-25 07:36 36.99480 14.60235 7677 ft 276 kts 213°
2026-04-25 07:36 36.97957 14.58797 7268 ft 279 kts 227°
2026-04-25 07:36 36.96686 14.56967 6993 ft 278 kts 232°
2026-04-25 07:37 36.95483 14.55062 6678 ft 279 kts 233°
2026-04-25 07:37 36.94280 14.53153 6383 ft 279 kts 232°
2026-04-25 07:37 36.93058 14.51255 6075 ft 279 kts 232°
2026-04-25 07:37 36.91832 14.49384 5760 ft 276 kts 231°
2026-04-25 07:38 36.90621 14.47553 5490 ft 271 kts 231°
2026-04-25 07:38 36.89439 14.45772 5349 ft 260 kts 231°
2026-04-25 07:38 36.88222 14.44171 5212 ft 251 kts 214°
2026-04-25 07:38 36.86619 14.43484 5084 ft 240 kts 181°
2026-04-25 07:39 36.85050 14.43888 5014 ft 226 kts 152°
2026-04-25 07:39 36.83866 14.45055 4909 ft 215 kts 127°
2026-04-25 07:39 36.83214 14.46675 4696 ft 210 kts 101°
2026-04-25 07:39 36.83155 14.48453 4484 ft 202 kts 79°
2026-04-25 07:40 36.83588 14.50067 4202 ft 192 kts 53°
2026-04-25 07:40 36.84627 14.50882 4008 ft 175 kts 359°
2026-04-25 07:40 36.85770 14.50431 3917 ft 176 kts 334°
2026-04-25 07:40 36.86931 14.49852 3678 ft 181 kts 341°
2026-04-25 07:41 36.88133 14.49386 3558 ft 179 kts 342°
2026-04-25 07:41 36.89273 14.48903 3518 ft 168 kts 335°
2026-04-25 07:41 36.90233 14.48093 3525 ft 167 kts 327°
2026-04-25 07:41 36.91334 14.47738 3311 ft 166 kts
2026-04-25 07:42 36.92320 14.48446 2989 ft 172 kts 53°
2026-04-25 07:42 36.92815 14.49822 3053 ft 178 kts 64°
2026-04-25 07:42 36.93324 14.51288 2561 ft 190 kts 58°
2026-04-25 07:42 36.94085 14.52621 2171 ft 184 kts 48°
2026-04-25 07:43 36.94873 14.53835 1922 ft 174 kts 48°
2026-04-25 07:43 36.95615 14.54957 1688 ft 160 kts 48°
2026-04-25 07:43 36.96299 14.55993 1391 ft 154 kts 50°
2026-04-25 07:43 36.96978 14.57010 1145 ft 149 kts 48°
2026-04-25 07:44 36.97613 14.57925 1119 ft 136 kts 49°
2026-04-25 07:44 36.98210 14.58840 919 ft 136 kts 51°
2026-04-25 07:44 36.98812 14.59735 739 ft 131 kts 50°
2026-04-25 07:44 36.99316 14.60494 720 ft 86 kts 50°
2026-04-25 07:45 36.99559 14.60856 720 ft 23 kts 50°
2026-04-25 07:45 36.99608 14.60959 719 ft 12 kts 64°
2026-04-25 07:45 36.99644 14.60967 720 ft 6 kts 301°
2026-04-25 07:45 36.99629 14.60928 719 ft 6 kts 219°
2026-04-25 07:46 36.99588 14.60886 723 ft 11 kts 219°
2026-04-25 07:46 36.99526 14.60805 722 ft 15 kts 230°
2026-04-25 07:46 36.99459 14.60705 720 ft 15 kts 230°
2026-04-25 07:46 36.99457 14.60651 721 ft 5 kts 334°
2026-04-25 07:47 36.99492 14.60670 721 ft 7 kts 37°
2026-04-25 07:47 36.99543 14.60706 721 ft 9 kts 20°
2026-04-25 07:47 36.99599 14.60732 723 ft 9 kts 20°
2026-04-25 07:47 36.99654 14.60758 720 ft 8 kts 21°
2026-04-25 07:48 36.99693 14.60777 721 ft 5 kts 21°
2026-04-25 07:48 36.99724 14.60785 720 ft 5 kts 352°
2026-04-25 07:48 36.99750 14.60768 720 ft 3 kts 320°
2026-04-25 07:48 36.99766 14.60753 720 ft 3 kts 336°
2026-04-25 07:49 36.99776 14.60750 720 ft 1 kts 345°
2026-04-25 07:49 36.99781 14.60757 720 ft 1 kts 62°
2026-04-25 07:49 36.99776 14.60768 720 ft 2 kts 141°
2026-04-25 07:49 36.99774 14.60769 720 ft 0 kts 143°